+ View the NASA Portal
+ Center for Near-Earth Object Studies
IMPORTANT:
The SSD Announcement email list is now available. Major changes are coming in the near future, including possible hostname and/or URL changes. To be notified of such changes, subscribe to this email list.
Please visit
this page
for more details.
Don't show this message again
JPL Small-Body Database Browser
Search:
[
help
]
357723 (2005 QB133)
Classification:
Main-belt Asteroid
SPK-ID:
2357723
[
Ephemeris
|
Orbit Diagram
|
Orbital Elements
|
Mission Design
|
Physical Parameters
|
Discovery Circumstances
|
Close-Approach Data
]
[ show orbit diagram ]
Orbital Elements at Epoch 2458600.5 (2019-Apr-27.0) TDB
Reference:
JPL 10
(heliocentric ecliptic J2000)
Element
Value
Uncertainty (1-sigma)
Units
e
.1418612740906722
1.0009e-07
a
3.034731587964405
5.3623e-08
au
q
2.604220698372565
2.9175e-07
au
i
4.006543800855308
1.0615e-05
deg
node
37.19884735383424
0.00011831
deg
peri
21.06583472517347
0.00012192
deg
M
153.9447856742718
3.2652e-05
deg
t
p
2457774.763775521209
(2017-Jan-21.26377552)
0.00016419
TDB
period
1930.984797636088
5.29
5.118e-05
1.401e-07
d
yr
n
.1864333683210308
4.9414e-09
deg/d
Q
3.465242477556244
6.123e-08
au
Orbit Determination Parameters
# obs. used (total)
97
data-arc span
6819 days (18.67 yr)
first obs. used
2000-09-04
last obs. used
2019-05-07
planetary ephem.
DE431
SB-pert. ephem.
SB431-N16
condition code
0
norm. resid. RMS
.61696
source
ORB
producer
Otto Matic
solution date
2019-May-30 09:29:47
Additional Information
Earth MOID
= 1.61649 au
Jupiter MOID
= 1.88247 au
T_jup
= 3.223
[ show covariance matrix ]
[
Ephemeris
|
Orbit Diagram
|
Orbital Elements
|
Mission Design
|
Physical Parameters
|
Discovery Circumstances
|
Close-Approach Data
]
Physical Parameter Table
Parameter
Symbol
Value
Units
Sigma
Reference
Notes
absolute magnitude
H
16.7
n/a
MPO437510
357723 (2005 QB133)
Discovered 2005-Aug-28 by Spacewatch at Kitt Peak
Reference:
20130327/Numbers.arc
Last Updated:
2013-03-29
[ show close-approach data ]
Alternate Designations
2005 QB133
= 2008 GL30
[
Ephemeris
|
Orbit Diagram
|
Orbital Elements
|
Mission Design
|
Physical Parameters
|
Discovery Circumstances
|
Close-Approach Data
]
2019-Dec-10 06:11 UT
(server date/time)
Site Manager:
Ryan S. Park
Webmaster
:
Alan B. Chamberlin